Powrót do katalogu

SL-24 DEB

AktywnySSO
NORAD 35689·DEBRIS·🇷🇺 Russia

Wystrzelony Jul 29, 2009 z Baikonur Cosmodrome

Loading…

Następne Przeloty (najbliższe 24 godziny)

TLE

ŚwieżeSource: Space-Track

Epoka: Sep 14, 2026, 13:03 UTC

1 35689U 09041J   26257.54433582  .00001297  00000-0  15559-3 0  9998
2 35689  97.6499  64.2957 0018617 336.5925  23.4441 14.85565556922355

Śledź SL-24 DEB w czasie rzeczywistym z AllMySat

Download on the App Store